| time (UTC) | temp C | wind direction | speed KPH | gust KPH | rain 1hr cm | rain 24hr cm | rain mn cm | humidity % | barometer mb |
| 20260503184024 | 18 | 311 | 8.0 | 12.9 | 0.00 | 0.00 | 0.00 | 67 | 1014.2 |
| 20260503183523 | 18 | 296 | 9.7 | 12.9 | 0.00 | 0.00 | 0.00 | 65 | 1014.3 |
| 20260503183040 | 18 | 285 | 9.7 | 12.9 | 0.00 | 0.00 | 0.00 | 67 | 1014.2 |
| 20260503182522 | 18 | 319 | 6.4 | 11.3 | 0.00 | 0.00 | 0.00 | 67 | 1014.3 |
| 20260503182024 | 19 | 292 | 6.4 | 9.7 | 0.00 | 0.00 | 0.00 | 67 | 1014.3 |
| 20260503181540 | 19 | 290 | 6.4 | 9.7 | 0.00 | 0.00 | 0.00 | 65 | 1014.4 |
| 20260503181022 | 19 | 307 | 6.4 | 9.7 | 0.00 | 0.00 | 0.00 | 67 | 1014.4 |
| 20260503180521 | 18 | 299 | 6.4 | 11.3 | 0.00 | 0.00 | 0.00 | 66 | 1014.3 |
| 20260503180045 | 18 | 304 | 4.8 | 11.3 | 0.00 | 0.00 | 0.00 | 66 | 1014.5 |
| 20260503175523 | 18 | 282 | 6.4 | 11.3 | 0.00 | 0.00 | 0.00 | 67 | 1014.6 |
| 20260503175022 | 18 | 297 | 6.4 | 9.7 | 0.00 | 0.00 | 0.00 | 68 | 1014.6 |
| 20260503174546 | 18 | 300 | 4.8 | 9.7 | 0.00 | 0.00 | 0.00 | 69 | 1014.6 |
| 20260503174022 | 18 | 276 | 6.4 | 9.7 | 0.00 | 0.00 | 0.00 | 69 | 1014.6 |
| 20260503173522 | 19 | 314 | 3.2 | 8.0 | 0.00 | 0.00 | 0.00 | 66 | 1014.6 |
| 20260503173049 | 19 | 115 | 3.2 | 8.0 | 0.00 | 0.00 | 0.00 | 68 | 1014.6 |
| 20260503172521 | 19 | 137 | 6.4 | 8.0 | 0.00 | 0.00 | 0.00 | 66 | 1014.5 |
| 20260503172021 | 19 | 167 | 3.2 | 6.4 | 0.00 | 0.00 | 0.00 | 71 | 1014.6 |
| 20260503171542 | 19 | 0 | 0.0 | 0.0 | 0.00 | 0.00 | 0.00 | 68 | 1014.7 |
| 20260503171022 | 18 | 0 | 0.0 | 4.8 | 0.00 | 0.00 | 0.00 | 71 | 1014.7 |
| 20260503170522 | 18 | 309 | 0.0 | 4.8 | 0.00 | 0.00 | 0.00 | 73 | 1014.8 |
| 20260503150522 | 15 | 302 | 8.0 | 12.9 | 0.00 | 0.00 | 0.00 | 85 | 1015.2 |
| 20260503131023 | 10 | 0 | 1.6 | 1.6 | 0.00 | 0.00 | 0.00 | 96 | 1015.0 |
| 20260503130523 | 10 | 0 | 0.0 | 1.6 | 0.00 | 0.00 | 0.00 | 95 | 1015.0 |
| 20260503110522 | 10 | 82 | 0.0 | 4.8 | 0.00 | 0.00 | 0.00 | 93 | 1015.0 |
| 20260503081543 | 12 | 299 | 0.0 | 1.6 | 0.00 | 0.00 | 0.00 | 88 | 1014.7 |
| 20260503081022 | 12 | 299 | 1.6 | 1.6 | 0.00 | 0.00 | 0.00 | 87 | 1014.7 |
| 20260503080522 | 12 | 354 | 0.0 | 1.6 | 0.00 | 0.00 | 0.00 | 87 | 1014.8 |
| 20260503072521 | 13 | 0 | 0.0 | 1.6 | 0.00 | 0.00 | 0.00 | 85 | 1014.6 |
| 20260503072021 | 13 | 0 | 0.0 | 1.6 | 0.00 | 0.00 | 0.00 | 85 | 1014.5 |
| 20260503071551 | 13 | 0 | 0.0 | 1.6 | 0.00 | 0.00 | 0.00 | 85 | 1014.5 |
| 20260503071021 | 13 | 0 | 0.0 | 1.6 | 0.00 | 0.00 | 0.00 | 85 | 1014.4 |
| 20260503070521 | 13 | 0 | 0.0 | 0.0 | 0.00 | 0.00 | 0.00 | 84 | 1014.5 |
| 20260503060107 | 16 | 330 | 4.8 | 6.4 | 0.00 | 0.00 | 0.00 | 72 | 1014.2 |
| 20260503055021 | 17 | 340 | 3.2 | 9.7 | 0.00 | 0.00 | 0.00 | 72 | 1014.0 |
| 20260503054539 | 17 | 293 | 6.4 | 11.3 | 0.00 | 0.00 | 0.00 | 69 | 1013.9 |
| 20260503054021 | 17 | 295 | 6.4 | 11.3 | 0.00 | 0.00 | 0.00 | 69 | 1014.0 |
| 20260503053521 | 17 | 314 | 3.2 | 8.0 | 0.00 | 0.00 | 0.00 | 68 | 1014.0 |
| 20260503053042 | 17 | 288 | 1.6 | 8.0 | 0.00 | 0.00 | 0.00 | 68 | 1014.1 |
| 20260503052521 | 17 | 249 | 3.2 | 8.0 | 0.00 | 0.00 | 0.00 | 67 | 1014.1 |
| 20260503052022 | 17 | 237 | 3.2 | 6.4 | 0.00 | 0.00 | 0.00 | 68 | 1014.0 |
| 20260503051541 | 17 | 285 | 0.0 | 6.4 | 0.00 | 0.00 | 0.00 | 70 | 1014.2 |
| 20260503051021 | 17 | 212 | 3.2 | 6.4 | 0.00 | 0.00 | 0.00 | 69 | 1014.1 |
| 20260503050521 | 17 | 58 | 3.2 | 6.4 | 0.00 | 0.00 | 0.00 | 69 | 1014.2 |
| 20260503050041 | 16 | 307 | 1.6 | 4.8 | 0.00 | 0.00 | 0.00 | 71 | 1014.1 |
| 20260503045522 | 16 | 117 | 1.6 | 4.8 | 0.00 | 0.00 | 0.00 | 75 | 1014.1 |
| 20260503045024 | 16 | 139 | 1.6 | 4.8 | 0.00 | 0.00 | 0.00 | 75 | 1014.2 |
| 20260503044541 | 16 | 127 | 1.6 | 6.4 | 0.00 | 0.00 | 0.00 | 76 | 1014.1 |
| 20260503044021 | 16 | 131 | 1.6 | 6.4 | 0.00 | 0.00 | 0.00 | 75 | 1014.0 |
| 20260503043523 | 16 | 264 | 3.2 | 6.4 | 0.00 | 0.00 | 0.00 | 75 | 1014.0 |
| 20260503043048 | 16 | 121 | 0.0 | 4.8 | 0.00 | 0.00 | 0.00 | 76 | 1013.9 |
| 20260503042526 | 16 | 122 | 1.6 | 4.8 | 0.00 | 0.00 | 0.00 | 75 | 1013.8 |
| 20260503042022 | 17 | 0 | 3.2 | 9.7 | 0.00 | 0.00 | 0.00 | 75 | 1013.8 |
| 20260503041542 | 17 | 102 | 1.6 | 9.7 | 0.00 | 0.00 | 0.00 | 73 | 1013.9 |
| 20260503041021 | 17 | 0 | 0.0 | 9.7 | 0.00 | 0.00 | 0.00 | 74 | 1013.8 |
| 20260503040521 | 17 | 67 | 0.0 | 4.8 | 0.00 | 0.00 | 0.00 | 74 | 1013.7 |
| 20260503040053 | 17 | 79 | 3.2 | 4.8 | 0.00 | 0.00 | 0.00 | 72 | 1013.7 |
| 20260503035521 | 17 | 70 | 0.0 | 1.6 | 0.00 | 0.00 | 0.00 | 69 | 1013.6 |
| 20260503035021 | 18 | 0 | 0.0 | 1.6 | 0.00 | 0.00 | 0.00 | 69 | 1013.6 |
| 20260503034544 | 18 | 0 | 0.0 | 1.6 | 0.00 | 0.00 | 0.00 | 63 | 1013.6 |
| 20260503034021 | 18 | 0 | 0.0 | 1.6 | 0.00 | 0.00 | 0.00 | 64 | 1013.5 |
| 20260503033522 | 18 | 0 | 0.0 | 1.6 | 0.00 | 0.00 | 0.00 | 61 | 1013.5 |
| 20260503033040 | 19 | 314 | 0.0 | 4.8 | 0.00 | 0.00 | 0.00 | 58 | 1013.5 |
| 20260503032521 | 19 | 315 | 1.6 | 8.0 | 0.00 | 0.00 | 0.00 | 58 | 1013.5 |
| 20260503032021 | 20 | 89 | 3.2 | 9.7 | 0.00 | 0.00 | 0.00 | 57 | 1013.4 |
| 20260503031537 | 20 | 348 | 4.8 | 9.7 | 0.00 | 0.00 | 0.00 | 56 | 1013.4 |
| 20260503031022 | 20 | 303 | 3.2 | 11.3 | 0.00 | 0.00 | 0.00 | 54 | 1013.4 |
| 20260503030521 | 20 | 322 | 4.8 | 11.3 | 0.00 | 0.00 | 0.00 | 56 | 1013.4 |
| 20260503030036 | 20 | 302 | 6.4 | 9.7 | 0.00 | 0.00 | 0.00 | 55 | 1013.4 |
| 20260503025522 | 20 | 250 | 3.2 | 8.0 | 0.00 | 0.00 | 0.00 | 54 | 1013.4 |
| 20260503025023 | 21 | 292 | 1.6 | 11.3 | 0.00 | 0.00 | 0.00 | 55 | 1013.3 |
| 20260503024543 | 21 | 319 | 3.2 | 11.3 | 0.00 | 0.00 | 0.00 | 54 | 1013.3 |
| 20260503024022 | 21 | 272 | 3.2 | 11.3 | 0.00 | 0.00 | 0.00 | 56 | 1013.3 |
| 20260503023522 | 21 | 301 | 3.2 | 6.4 | 0.00 | 0.00 | 0.00 | 55 | 1013.2 |
| 20260503023043 | 21 | 278 | 1.6 | 6.4 | 0.00 | 0.00 | 0.00 | 56 | 1013.3 |
| 20260503022521 | 21 | 241 | 1.6 | 8.0 | 0.00 | 0.00 | 0.00 | 56 | 1013.4 |
| 20260503022022 | 21 | 293 | 3.2 | 11.3 | 0.00 | 0.00 | 0.00 | 57 | 1013.3 |
| 20260503021550 | 21 | 306 | 4.8 | 12.9 | 0.00 | 0.00 | 0.00 | 57 | 1013.3 |
| 20260503021022 | 21 | 298 | 6.4 | 12.9 | 0.00 | 0.00 | 0.00 | 57 | 1013.3 |
| 20260503020522 | 21 | 305 | 8.0 | 12.9 | 0.00 | 0.00 | 0.00 | 56 | 1013.4 |
| 20260503020048 | 21 | 307 | 6.4 | 14.5 | 0.00 | 0.00 | 0.00 | 56 | 1013.3 |
| 20260503015521 | 21 | 296 | 8.0 | 14.5 | 0.00 | 0.00 | 0.00 | 56 | 1013.5 |
| 20260503015021 | 21 | 303 | 6.4 | 14.5 | 0.00 | 0.00 | 0.00 | 57 | 1013.5 |
| 20260503014537 | 21 | 305 | 6.4 | 14.5 | 0.00 | 0.00 | 0.00 | 57 | 1013.5 |
| 20260503014021 | 21 | 299 | 8.0 | 14.5 | 0.00 | 0.00 | 0.00 | 57 | 1013.5 |
| 20260503013521 | 21 | 276 | 8.0 | 17.7 | 0.00 | 0.00 | 0.00 | 56 | 1013.6 |
| 20260503013045 | 21 | 294 | 8.0 | 17.7 | 0.00 | 0.00 | 0.00 | 58 | 1013.6 |
| 20260503012521 | 21 | 340 | 8.0 | 17.7 | 0.00 | 0.00 | 0.00 | 59 | 1013.7 |
| 20260503012021 | 21 | 295 | 9.7 | 20.9 | 0.00 | 0.00 | 0.00 | 60 | 1013.6 |
| 20260503011545 | 21 | 295 | 11.3 | 20.9 | 0.00 | 0.00 | 0.00 | 59 | 1013.7 |
| 20260503011021 | 21 | 295 | 11.3 | 20.9 | 0.00 | 0.00 | 0.00 | 58 | 1013.8 |
| 20260503010521 | 21 | 276 | 9.7 | 17.7 | 0.00 | 0.00 | 0.00 | 58 | 1013.9 |
| 20260503010042 | 21 | 298 | 9.7 | 17.7 | 0.00 | 0.00 | 0.00 | 60 | 1013.8 |
| 20260503005523 | 21 | 286 | 9.7 | 19.3 | 0.00 | 0.00 | 0.00 | 61 | 1013.7 |
| 20260503005021 | 21 | 304 | 8.0 | 20.9 | 0.00 | 0.00 | 0.00 | 61 | 1013.9 |
| 20260503004555 | 21 | 293 | 12.9 | 22.5 | 0.00 | 0.00 | 0.00 | 60 | 1013.8 |
| 20260503004021 | 20 | 295 | 11.3 | 22.5 | 0.00 | 0.00 | 0.00 | 61 | 1014.0 |
| 20260503003520 | 21 | 302 | 12.9 | 20.9 | 0.00 | 0.00 | 0.00 | 60 | 1014.0 |
| 20260503003059 | 21 | 300 | 12.9 | 17.7 | 0.00 | 0.00 | 0.00 | 60 | 1014.0 |
| 20260503002521 | 21 | 301 | 8.0 | 22.5 | 0.00 | 0.00 | 0.00 | 60 | 1014.0 |
| 20260503002021 | 21 | 293 | 11.3 | 22.5 | 0.00 | 0.00 | 0.00 | 60 | 1014.1 |
| 20260503001542 | 21 | 319 | 9.7 | 22.5 | 0.00 | 0.00 | 0.00 | 60 | 1014.1 |
| 20260503001021 | 21 | 297 | 9.7 | 19.3 | 0.00 | 0.00 | 0.00 | 60 | 1014.2 |
| 20260503000521 | 21 | 295 | 11.3 | 19.3 | 0.00 | 0.00 | 0.00 | 60 | 1014.3 |
| 20260503000038 | 21 | 293 | 11.3 | 17.7 | 0.00 | 0.00 | 0.00 | 60 | 1014.3 |
| 20260502235521 | 21 | 307 | 6.4 | 20.9 | 0.00 | 0.00 | 0.00 | 61 | 1014.3 |
| 20260502235021 | 21 | 297 | 12.9 | 20.9 | 0.00 | 0.00 | 0.00 | 61 | 1014.4 |
| 20260502234544 | 21 | 287 | 9.7 | 20.9 | 0.00 | 0.00 | 0.00 | 61 | 1014.5 |
| 20260502234021 | 20 | 309 | 9.7 | 20.9 | 0.00 | 0.00 | 0.00 | 62 | 1014.4 |
| 20260502233522 | 20 | 307 | 9.7 | 20.9 | 0.00 | 0.00 | 0.00 | 62 | 1014.5 |
| 20260502233041 | 20 | 286 | 9.7 | 20.9 | 0.00 | 0.00 | 0.00 | 63 | 1014.6 |
| 20260502232520 | 20 | 276 | 9.7 | 17.7 | 0.00 | 0.00 | 0.00 | 63 | 1014.6 |
| 20260502232021 | 20 | 283 | 9.7 | 20.9 | 0.00 | 0.00 | 0.00 | 64 | 1014.6 |
| 20260502231541 | 20 | 308 | 12.9 | 20.9 | 0.00 | 0.00 | 0.00 | 64 | 1014.7 |
| 20260502231021 | 20 | 300 | 8.0 | 16.1 | 0.00 | 0.00 | 0.00 | 67 | 1014.7 |
| 20260502230521 | 20 | 303 | 8.0 | 14.5 | 0.00 | 0.00 | 0.00 | 66 | 1014.8 |
| 20260502230044 | 20 | 337 | 8.0 | 16.1 | 0.00 | 0.00 | 0.00 | 66 | 1014.9 |
| 20260502225521 | 20 | 238 | 4.8 | 17.7 | 0.00 | 0.00 | 0.00 | 66 | 1015.1 |
| 20260502225021 | 20 | 285 | 9.7 | 20.9 | 0.00 | 0.00 | 0.00 | 67 | 1015.2 |
| 20260502224540 | 20 | 295 | 9.7 | 20.9 | 0.00 | 0.00 | 0.00 | 66 | 1015.2 |
| 20260502224021 | 20 | 288 | 12.9 | 17.7 | 0.00 | 0.00 | 0.00 | 66 | 1015.3 |
| 20260502223522 | 20 | 295 | 11.3 | 17.7 | 0.00 | 0.00 | 0.00 | 67 | 1015.3 |
| 20260502223038 | 20 | 313 | 6.4 | 12.9 | 0.00 | 0.00 | 0.00 | 67 | 1015.3 |
| 20260502222522 | 20 | 301 | 8.0 | 12.9 | 0.00 | 0.00 | 0.00 | 66 | 1015.5 |
| 20260502222021 | 20 | 297 | 9.7 | 14.5 | 0.00 | 0.00 | 0.00 | 66 | 1015.7 |
| 20260502221543 | 20 | 273 | 8.0 | 16.1 | 0.00 | 0.00 | 0.00 | 65 | 1015.7 |
| 20260502221021 | 19 | 295 | 9.7 | 20.9 | 0.00 | 0.00 | 0.00 | 66 | 1015.8 |
| 20260502220522 | 19 | 309 | 11.3 | 20.9 | 0.00 | 0.00 | 0.00 | 64 | 1015.7 |
| 20260502220042 | 19 | 295 | 9.7 | 22.5 | 0.00 | 0.00 | 0.00 | 64 | 1015.8 |
| 20260502215524 | 19 | 318 | 11.3 | 22.5 | 0.00 | 0.00 | 0.00 | 64 | 1015.9 |
| 20260502215020 | 19 | 300 | 11.3 | 22.5 | 0.00 | 0.00 | 0.00 | 62 | 1016.0 |
| 20260502214540 | 19 | 317 | 9.7 | 22.5 | 0.00 | 0.00 | 0.00 | 65 | 1016.1 |
| 20260502214023 | 19 | 250 | 12.9 | 22.5 | 0.00 | 0.00 | 0.00 | 65 | 1016.1 |
| 20260502213520 | 18 | 294 | 12.9 | 24.1 | 0.00 | 0.00 | 0.00 | 64 | 1016.1 |
| 20260502213058 | 18 | 316 | 16.1 | 24.1 | 0.00 | 0.00 | 0.00 | 65 | 1016.2 |
| 20260502212521 | 18 | 291 | 16.1 | 24.1 | 0.00 | 0.00 | 0.00 | 66 | 1016.2 |
| 20260502212022 | 18 | 291 | 12.9 | 22.5 | 0.00 | 0.00 | 0.00 | 67 | 1016.3 |
| 20260502211538 | 18 | 308 | 14.5 | 22.5 | 0.00 | 0.00 | 0.00 | 67 | 1016.4 |
| 20260502211021 | 18 | 293 | 14.5 | 19.3 | 0.00 | 0.00 | 0.00 | 68 | 1016.3 |
| 20260502210521 | 18 | 302 | 12.9 | 20.9 | 0.00 | 0.00 | 0.00 | 70 | 1016.3 |
| 20260502210044 | 18 | 302 | 11.3 | 22.5 | 0.00 | 0.00 | 0.00 | 72 | 1016.4 |
| 20260502205521 | 18 | 293 | 14.5 | 22.5 | 0.00 | 0.00 | 0.00 | 72 | 1016.5 |
| 20260502205024 | 18 | 302 | 14.5 | 20.9 | 0.00 | 0.00 | 0.00 | 72 | 1016.6 |
| 20260502204545 | 18 | 305 | 12.9 | 20.9 | 0.00 | 0.00 | 0.00 | 74 | 1016.6 |
| 20260502204021 | 17 | 288 | 16.1 | 24.1 | 0.00 | 0.00 | 0.00 | 73 | 1016.7 |
| 20260502203524 | 18 | 314 | 14.5 | 24.1 | 0.00 | 0.00 | 0.00 | 73 | 1016.5 |
| 20260502203042 | 18 | 296 | 12.9 | 22.5 | 0.00 | 0.00 | 0.00 | 72 | 1016.7 |
| 20260502202520 | 18 | 276 | 14.5 | 19.3 | 0.00 | 0.00 | 0.00 | 71 | 1016.6 |
| 20260502202020 | 18 | 291 | 12.9 | 17.7 | 0.00 | 0.00 | 0.00 | 70 | 1016.7 |
| 20260502201541 | 18 | 278 | 9.7 | 22.5 | 0.00 | 0.00 | 0.00 | 72 | 1016.9 |
| 20260502201021 | 17 | 296 | 11.3 | 22.5 | 0.00 | 0.00 | 0.00 | 73 | 1017.0 |
| 20260502200521 | 17 | 294 | 14.5 | 22.5 | 0.00 | 0.00 | 0.00 | 73 | 1017.0 |
| 20260502200100 | 17 | 298 | 14.5 | 20.9 | 0.00 | 0.00 | 0.00 | 74 | 1017.0 |
| 20260502195524 | 17 | 302 | 14.5 | 25.7 | 0.00 | 0.00 | 0.00 | 74 | 1017.0 |
| 20260502195020 | 17 | 288 | 14.5 | 25.7 | 0.00 | 0.00 | 0.00 | 76 | 1017.0 |
| 20260502194558 | 17 | 297 | 16.1 | 25.7 | 0.00 | 0.00 | 0.00 | 74 | 1017.1 |
| 20260502194021 | 17 | 301 | 9.7 | 16.1 | 0.00 | 0.00 | 0.00 | 75 | 1017.1 |
| 20260502193521 | 17 | 276 | 11.3 | 20.9 | 0.00 | 0.00 | 0.00 | 75 | 1017.1 |
| 20260502193043 | 17 | 272 | 11.3 | 22.5 | 0.00 | 0.00 | 0.00 | 77 | 1017.0 |
| 20260502192521 | 17 | 275 | 16.1 | 22.5 | 0.00 | 0.00 | 0.00 | 75 | 1017.0 |
| 20260502192023 | 17 | 284 | 11.3 | 20.9 | 0.00 | 0.00 | 0.00 | 77 | 1017.1 |
| 20260502191546 | 17 | 299 | 14.5 | 20.9 | 0.00 | 0.00 | 0.00 | 76 | 1017.1 |
| 20260502191021 | 17 | 301 | 12.9 | 19.3 | 0.00 | 0.00 | 0.00 | 75 | 1017.1 |
| 20260502190525 | 17 | 311 | 12.9 | 19.3 | 0.00 | 0.00 | 0.00 | 77 | 1017.0 |
| 20260502190043 | 17 | 291 | 12.9 | 17.7 | 0.00 | 0.00 | 0.00 | 76 | 1017.1 |
| 20260502185520 | 17 | 281 | 12.9 | 22.5 | 0.00 | 0.00 | 0.00 | 78 | 1017.2 |
| 20260502185021 | 17 | 307 | 11.3 | 22.5 | 0.00 | 0.00 | 0.00 | 79 | 1017.2 |
| 20260502184540 | 16 | 295 | 14.5 | 22.5 | 0.00 | 0.00 | 0.00 | 79 | 1017.2 |